Miscellaneous Local Product
Issued by NWS North Platte, NE

Home | Current Version | Previous Version | Text Only | Print | Product List | Glossary On
Versions: 1 2 3 4 5 6 7 8 9 10 11 12 13 14 15 16 17 18 19 20 21 22 23 24 25 26 27 28 29 30 31 32 33 34 35 36 37 38 39 40 41 42 43 44 45 46 47 48 49 50
981
AXUS43 KLBF 301510
MISLBF


WESTERN AND NORTH CENTRAL NEBRASKA HOURLY WEATHER ROUNDUP
NATIONAL WEATHER SERVICE NORTH PLATTE NE
1000 AM CDT SAT JUL 30 2016

NOTE: "FAIR" INDICATES FEW OR NO CLOUDS BELOW 12,000 FEET WITH NO
SIGNIFICANT WEATHER AND/OR OBSTRUCTIONS TO VISIBILITY.

NOTE: STATIONS NOT REPORTING VARIABLES SUCH AS SKY/WEATHER OR
PRESSURE ARE PROVIDED BY RAWS AND APRS NETWORKS AND ARE NOT UNDER
NATIONAL WEATHER SERVICE QUALITY CONTROL.

...OBSERVATIONS IN AND NEAR THE EASTERN PANHANDLE OF NEBRASKA...

CITY           SKY/WX    TMP DP  RH WIND       PRES   REMARKS
PINE RIDGE     SUNNY     74  61  63 S13       29.97S
CHADRON        SUNNY     75  61  61 S10       29.96F
ALLIANCE       SUNNY     70  62  76 S5        30.01S
SIDNEY         CLOUDY    70  63  78 SE3       30.05R
CRESCENT LAKE    N/A     71  64  78 S3          N/A
$$

...OBSERVATIONS IN NORTHERN NEBRASKA AND FAR SOUTHERN SOUTH DAKOTA...

CITY           SKY/WX    TMP DP  RH WIND       PRES   REMARKS
WINNER         FAIR      73  60  63 S10       29.97F
VALENTINE      MOSUNNY   73  61  65 S18       29.99F
THEDFORD       CLOUDY    68  64  87 SE15      30.03F
AINSWORTH      CLOUDY    72  63  73 S10       30.01F
O`NEILL        MOSUNNY   70  64  80 S6        30.02F
ORD            MOSUNNY   67  63  87 S6        30.01F
BROKEN BOW     CLOUDY    66  62  87 SE12      30.04F
VALENTINE NWR    N/A     68  62  80 S10G17      N/A
BUTTE            N/A     68  63  84 S10         N/A
HALSEY           N/A     64  62  93 SE9G16      N/A
EWING            N/A     67  64  90 S3          N/A
$$

...OBSERVATIONS IN SOUTHWEST NEBRASKA AND FAR NORTHEAST COLORADO...

CITY           SKY/WX    TMP DP  RH WIND       PRES   REMARKS
WRAY           FAIR      72  61  68 SE3       30.03S
HOLYOKE        FAIR      73  66  78 CALM      30.02F
IMPERIAL       CLOUDY    71  62  73 S8        30.01R
OGALLALA       SUNNY     73  63  72 SE3       30.00F
NORTH PLATTE   PTSUNNY   71  65  81 E12       30.02R
MCCOOK         SUNNY     75  65  70 S7        30.00S
LEXINGTON      CLOUDY    69  65  85 E13       30.03S
STAPLETON        N/A     67  65  92 MISG        N/A
GOTHENBURG       N/A     66  61  85 E7          N/A
CALLAWAY         N/A     65  64  97 E8          N/A
$$

...OBSERVATIONS IN CENTRAL LINCOLN COUNTY AREA...

CITY           SKY/WX    TMP DP  RH WIND       PRES   REMARKS
N.P. AIRPORT   PTSUNNY   71  65  81 E12       30.02R
N.P. DOWNTOWN    N/A     71  66  84 E7          N/A
N.P. HILLCREST   N/A     71  66  84 E13         N/A
$$

...SOME OBSERVATIONS FROM AROUND THE REGION...

CITY           SKY/WX    TMP DP  RH WIND       PRES   REMARKS
DENVER         MOSUNNY   70  59  68 N9        30.06S
LARAMIE        SUNNY     61  53  75 MISG      30.20S
CHEYENNE       CLOUDY    63  59  87 S6        30.13S
SCOTTSBLUFF    SUNNY     70  62  76 E6        30.01S
RAPID CITY     SUNNY     71  58  63 SE5       29.95R
BISMARCK       CLOUDY    67  61  81 SE12      29.91F
PIERRE         SUNNY     76  63  64 S14       29.93
SIOUX FALLS    MOSUNNY   72  62  71 S8        30.03F
OMAHA          PTSUNNY   71  63  75 CALM      30.04F
GRAND ISLAND   RAIN      63  61  93 N7        30.05R
KANSAS CITY    MOSUNNY   74  63  68 E5        30.04R
WICHITA        CLOUDY    74  70  87 S7        30.02S
OKLAHOMA CITY  CLOUDY    79  71  76 N7        30.01R
DALLAS         MOSUNNY   89  71  55 SW13      30.00S HX  95
AMARILLO       SUNNY     76  63  64 S14       30.12S
DODGE CITY     MOSUNNY   75  67  76 S10       30.03R
HAYS           CLOUDY    77  63  61 S12       30.00S
GOODLAND       SUNNY     73  63  70 S9        30.02S
$$




USA.gov is the U.S. government's official web portal to all federal, state and local government web resources and services.